Regional Weather Roundup
Issued by NWS

Home | Current Version | Previous Version | Graphics & Text | Print | Product List | Glossary On
Versions: 1 2 3 4 5 6 7 8 9 10 11 12 13 14 15 16 17 18 19 20 21 22 23 24 25 26 27 28 29 30 31 32 33 34 35 36 37 38 39 40 41 42 43 44 45 46 47 48 49 50
000
ASUS45 KBOI 262110
RWRID
WEATHER ROUNDUP FOR IDAHO
NATIONAL WEATHER SERVICE BOISE ID
300 PM MDT THU MAR 26 2015

NOTE: "FAIR" INDICATES FEW OR NO CLOUDS BELOW 12000 FEET
WITH NO SIGNIFICANT WEATHER AND/OR OBSTRUCTIONS TO VISIBILITY

IDZ012-014-262200-
SOUTHWEST IDAHO


CITY           SKY/WX    TMP DP  RH WIND       PRES   REMARKS
BOISE          FAIR      60  38  43 N7        30.35F
CALDWELL       FAIR      61  37  41 CALM      30.37F
MOUNTAIN HOME  SUNNY     61  38  42 VRB3      30.34F
$$

IDZ016-017-262200-
SOUTHCENTRAL IDAHO


CITY           SKY/WX    TMP DP  RH WIND       PRES   REMARKS
BURLEY         FAIR      58  33  39 VRB7      30.34F
JEROME         FAIR      57  33  40 SW12      30.36F
TWIN FALLS     FAIR      61  35  37 W10G18    30.36F
$$

IDZ019>023-262200-
SOUTHEAST IDAHO


CITY           SKY/WX    TMP DP  RH WIND       PRES   REMARKS
IDAHO FALLS    MOSUNNY   57  30  35 SW12G18   30.35F
POCATELLO      MOSUNNY   59  33  37 W14       30.36F
REXBURG        MOSUNNY   56  30  37 SW13      30.33F
$$

IDZ006-010-011-018-031-032-262200-
CENTRAL IDAHO MOUNTAINS


CITY           SKY/WX    TMP DP  RH WIND       PRES   REMARKS
MCCALL         FAIR      54  38  54 CALM      30.36F
HAILEY         MOSUNNY   54  34  47 SE14G21   30.37F
STANLEY          N/A     55  33  43 N7        30.38F
SALMON         CLOUDY    59  34  38 NW5       30.31F
CHALLIS        FAIR      59  31  34 E3        30.32F
$$

IDZ002-004-006-007-026-262200-
NORTHERN IDAHO


CITY           SKY/WX    TMP DP  RH WIND       PRES   REMARKS
LEWISTON       FAIR      66  48  52 E8        30.28F
LOWELL           N/A     63  44  50 CALM      30.32F
COEUR D`ALENE  PTSUNNY   57  46  67 SE7       30.29F
MULLAN PASS    CLOUDY    39  39 100 VRB3      30.32F
$$


USA.gov is the U.S. government's official web portal to all federal, state and local government web resources and services.